Wind_Speed
58 63 67 71 74 76 76 75 75 73 69 65 63 64 64 57 54 57 56 51 49 48 46 49 59 64 64 63 61 58 57 55 53 51 49 48 47 46 46 46 45 43 42 42 43 43 42 41 40 39 38 38 38 36 35 34 32 30 29 28 27 26 24 23 22 20 18 17 17 18 18 18 18 18 19 20 19 19 19 19 19 18 17 17 19
55 61 66 70 74 77 77 76 76 75 71 66 63 63 65 62 57 57 58 52 48 48 45 43 50 59 61 60 59 58 58 57 55 52 50 50 49 48 47 46 45 44 43 43 44 43 42 41 41 39 39 38 38 36 35 34 31 29 28 27 26 26 25 23 22 21 20 18 17 18 19 19 18 18 18 19 19 19 19 19 19 19 18 17 17
50 58 64 69 74 77 77 77 77 76 73 71 69 66 65 64 60 58 60 57 50 49 47 42 45 53 57 58 57 56 58 58 56 54 53 52 51 50 48 47 45 44 44 44 44 44 43 42 41 40 40 39 38 37 35 34 31 29 28 28 27 26 25 24 22 22 21 21 20 20 20 20 20 20 20 20 20 19 18 19 20 19 18 17 17
46 53 60 66 73 77 78 77 77 76 74 73 74 71 67 67 65 61 63 61 54 52 51 47 46 52 56 57 57 56 57 58 57 56 55 53 52 52 51 49 48 46 44 45 45 45 45 43 42 42 41 40 39 37 36 34 32 30 30 29 28 26 26 25 23 22 21 22 23 23 22 21 22 22 21 21 21 21 20 19 20 20 19 18 18
46 50 55 61 70 76 78 78 77 76 75 74 75 73 69 69 66 62 64 63 56 54 56 52 48 51 54 55 54 53 53 56 57 55 55 55 53 53 54 52 51 48 46 46 46 46 46 45 44 44 43 42 40 38 36 35 34 32 31 30 28 27 26 26 25 24 22 22 24 25 24 23 24 24 24 23 22 22 21 20 20 21 21 20 20
46 48 52 56 64 73 77 77 76 75 75 75 74 73 72 70 65 61 65 67 61 54 55 54 50 49 51 50 49 48 49 53 57 55 55 57 57 56 57 56 53 51 49 48 47 46 47 47 46 46 45 43 40 39 38 37 36 34 32 30 29 28 27 26 26 25 24 24 24 25 26 27 27 27 27 26 25 24 24 23 21 22 23 23 22
46 47 49 52 57 67 73 75 75 75 73 73 74 74 74 73 69 65 66 68 66 58 54 55 53 50 49 48 46 46 45 49 56 58 55 57 61 61 59 59 56 53 51 50 48 47 47 48 48 47 47 45 42 41 40 39 37 36 34 32 30 29 27 26 26 25 25 26 25 24 25 27 29 29 30 29 28 27 27 26 24 23 25 25 25
45 46 47 47 50 59 68 71 72 73 73 73 73 73 74 74 73 72 69 66 65 61 56 55 55 54 53 51 48 46 43 43 50 57 56 56 62 64 62 60 58 55 53 52 50 48 47 47 47 47 48 47 45 44 43 41 39 37 36 35 33 31 29 28 27 26 26 26 25 23 24 26 28 30 32 32 31 31 31 30 27 25 26 27 27
42 43 43 42 44 52 62 68 68 69 71 73 73 72 73 73 73 73 72 67 64 62 58 56 57 58 56 54 52 50 47 44 44 51 54 54 59 64 62 60 59 57 55 54 52 50 47 47 47 48 49 49 49 48 46 44 42 39 38 37 36 34 32 30 29 27 27 27 26 24 23 23 25 29 32 33 33 33 34 34 32 30 29 29 29
40 40 39 38 39 46 56 63 66 67 69 72 73 71 70 71 72 71 68 66 65 63 61 57 57 59 58 56 55 52 52 51 49 51 53 53 56 61 62 60 59 60 59 57 55 52 50 48 46 46 49 51 52 51 49 46 44 42 40 39 39 38 35 33 31 29 28 28 28 27 24 22 23 28 31 32 34 34 35 36 36 35 34 33 32
37 38 37 36 38 42 50 58 63 64 67 71 73 71 67 66 70 70 66 64 63 63 63 60 58 58 59 59 58 54 52 54 55 55 55 54 54 57 59 61 61 62 63 61 58 55 52 50 49 47 47 50 52 52 49 47 45 44 42 41 42 41 38 36 34 32 31 30 30 30 28 26 28 30 31 32 34 35 35 36 37 38 38 37 35
35 35 36 37 38 41 45 52 59 61 63 68 71 69 65 65 69 70 67 63 62 63 63 61 60 61 62 59 59 58 56 55 57 57 57 56 55 53 53 55 59 62 62 62 61 59 56 54 53 50 46 47 51 50 47 46 45 44 44 44 44 44 42 40 36 35 34 32 31 30 30 31 33 35 35 35 36 37 37 36 37 38 39 39 38
33 34 35 37 38 39 41 47 53 57 60 64 67 68 65 64 68 72 70 63 59 61 64 62 58 59 62 61 57 58 60 58 57 58 57 56 54 50 47 48 52 58 62 64 64 63 60 57 56 53 48 47 50 48 44 44 44 44 45 46 46 46 45 43 40 38 36 34 32 29 28 32 35 36 36 38 38 38 38 38 38 38 38 38 39
30 33 34 35 35 36 38 43 48 53 57 62 66 68 65 61 62 69 73 70 63 60 64 67 62 57 59 60 56 55 58 59 58 57 55 54 51 48 47 48 48 51 57 62 64 64 63 60 58 55 50 49 51 50 47 46 45 46 48 48 48 47 46 45 44 41 39 37 35 32 31 33 35 36 37 39 39 39 39 40 40 39 38 37 38
28 30 32 33 33 33 36 41 45 50 55 60 64 66 65 60 58 62 68 71 69 65 65 69 68 63 60 58 56 56 57 58 58 58 55 53 53 53 53 52 51 50 52 56 60 63 65 63 62 60 55 53 56 56 55 53 51 51 52 51 50 49 49 48 46 44 42 39 37 37 36 36 36 37 38 39 39 39 40 41 41 40 40 38 38
27 28 30 32 33 33 35 40 45 48 52 57 60 64 65 61 58 60 65 69 69 68 68 68 66 65 65 60 55 54 56 55 56 58 57 53 52 54 56 56 55 54 53 54 56 59 62 63 63 64 64 62 63 63 61 58 56 56 55 53 51 50 50 50 47 46 45 42 39 39 40 39 39 40 39 39 39 39 41 42 41 42 43 42 41
27 28 30 32 33 34 36 39 44 47 50 53 56 59 62 63 60 56 59 66 68 65 68 71 67 65 69 70 62 54 53 54 53 54 54 53 53 53 54 56 57 55 52 52 54 56 57 58 60 63 67 68 69 68 63 59 58 58 57 54 52 53 52 51 49 48 47 46 43 42 42 42 42 43 42 40 37 38 42 43 41 43 45 45 43
26 29 31 32 33 35 36 38 42 46 48 51 53 52 54 62 67 61 56 60 64 60 60 66 69 68 69 73 70 62 57 57 55 50 49 52 57 57 53 51 52 52 51 50 52 56 57 56 56 58 60 64 68 70 66 62 60 59 56 54 54 55 54 52 50 50 51 50 48 47 45 44 45 45 44 40 37 37 41 41 41 44 46 45 44
23 26 29 31 33 35 37 38 41 44 46 49 51 50 46 50 61 64 61 61 63 61 54 52 59 67 71 74 74 69 65 64 62 57 51 49 52 55 54 51 48 50 51 50 51 54 56 54 53 53 55 59 65 69 69 65 62 59 57 57 58 56 54 53 53 53 54 54 53 52 49 47 47 46 43 40 38 38 39 41 42 45 46 44 44
21 22 25 29 32 34 36 38 40 43 45 47 48 49 47 44 47 53 58 60 63 64 59 50 47 54 63 72 75 74 71 69 67 64 58 50 47 49 52 53 51 52 53 53 53 53 53 51 48 47 51 55 59 66 70 68 64 62 61 60 59 56 54 55 56 57 58 59 58 54 52 50 49 46 43 41 41 40 40 43 45 46 47 46 44
18 20 22 26 29 32 34 37 39 42 44 45 46 46 46 45 44 46 52 57 60 63 63 58 50 47 52 64 71 73 73 71 69 67 63 54 48 47 49 51 51 51 50 50 54 56 56 54 52 52 55 55 53 58 67 71 69 66 63 60 59 58 57 57 59 59 60 62 59 54 51 52 50 47 45 44 44 43 43 45 47 48 48 46 45
19 18 20 24 27 29 32 35 37 40 42 44 45 45 45 44 44 45 49 54 58 60 61 60 55 49 48 55 63 68 71 71 69 67 65 58 49 46 49 51 51 51 48 47 50 54 58 60 62 63 66 63 56 53 59 65 65 64 62 59 59 60 60 60 61 60 61 63 60 54 52 52 50 48 47 46 46 47 47 49 50 51 49 47 47
22 19 17 19 23 26 28 31 34 37 40 43 45 46 46 46 46 46 47 50 54 57 59 61 59 54 48 48 53 60 67 69 67 64 64 62 55 48 48 50 52 52 51 50 51 53 55 56 56 61 68 70 66 61 59 60 60 59 59 59 58 59 60 61 61 60 61 62 60 56 53 53 51 49 48 48 48 49 50 51 51 51 50 50 50
20 20 18 14 15 19 23 26 28 31 35 39 43 46 48 49 49 50 49 50 51 52 54 57 59 57 54 51 52 55 60 65 66 64 62 63 61 55 50 50 52 53 53 55 54 51 50 50 51 58 67 67 62 59 57 55 54 54 55 56 56 57 58 58 59 59 59 58 57 55 53 52 51 50 49 50 50 50 50 51 52 53 52 51 51
19 19 18 17 14 12 13 16 20 25 29 33 38 42 46 49 51 53 54 54 54 53 53 54 55 55 54 53 54 56 58 60 62 62 61 61 61 57 50 46 45 47 51 54 53 49 49 51 52 57 62 61 56 52 49 48 49 50 51 52 53 54 54 55 56 58 59 57 56 55 52 50 49 49 50 51 50 50 50 51 53 54 54 52 51
19 18 17 16 16 14 11 9 11 16 21 26 31 36 41 45 49 52 54 56 57 56 55 55 55 54 53 53 55 57 58 58 58 58 58 57 57 55 51 45 41 41 45 50 53 53 53 53 51 52 55 57 55 51 48 49 53 53 53 53 53 52 53 54 55 57 59 58 56 54 51 49 48 47 48 50 50 50 51 51 53 54 53 52 52
19 18 17 16 15 15 13 11 9 10 14 18 24 29 34 40 45 47 50 53 56 57 57 57 56 56 55 56 57 57 56 57 57 56 54 55 55 56 55 52 50 48 45 44 46 49 50 50 50 49 49 49 49 48 49 51 53 51 51 53 53 53 55 57 57 58 59 59 56 53 51 50 48 47 47 48 49 49 51 51 52 53 52 51 51
20 18 17 17 16 15 15 15 14 14 14 15 18 22 25 31 37 43 47 50 52 55 56 57 57 57 57 57 58 57 56 57 57 57 56 56 57 57 56 57 59 60 59 54 50 47 46 47 47 46 45 44 44 44 46 47 47 46 47 50 50 51 54 57 57 57 57 56 55 53 52 51 50 49 48 49 49 50 51 51 52 52 52 51 51
21 19 17 16 16 16 17 18 19 20 19 18 16 17 20 23 27 33 41 46 50 53 55 56 57 57 57 57 57 57 58 58 59 59 60 60 60 59 57 56 57 59 62 64 61 54 50 51 51 49 47 44 42 43 45 48 50 51 50 48 48 48 48 50 51 52 53 53 53 54 54 53 52 52 51 51 51 52 53 53 53 52 52 51 51
20 20 18 16 16 16 17 18 20 22 23 21 18 16 17 19 21 25 32 38 44 49 53 56 57 58 57 56 56 57 59 60 61 61 62 63 63 62 61 61 61 61 62 64 64 61 59 60 61 60 55 50 48 51 56 58 58 57 54 53 53 53 53 54 54 53 53 54 55 55 55 54 54 53 53 53 53 53 54 54 54 54 53 52 51
18 20 20 18 16 15 16 18 19 20 21 20 19 18 18 17 18 21 26 31 37 42 47 52 55 56 57 57 57 57 58 60 61 62 63 64 63 62 60 60 62 65 66 66 65 63 62 62 64 65 63 61 60 61 60 57 56 56 56 56 54 51 51 54 56 54 53 54 54 54 54 53 53 54 54 54 55 54 54 54 55 55 54 54 53
16 18 21 21 19 16 15 16 18 20 19 18 18 18 19 19 18 18 21 26 32 37 41 45 47 50 53 55 56 57 58 59 61 62 63 63 63 62 59 58 59 62 65 67 67 66 64 63 64 66 68 70 69 63 57 55 55 56 58 58 56 52 49 48 49 50 52 53 53 53 53 53 53 54 54 55 56 55 55 55 56 57 57 56 56
16 17 20 21 21 19 16 15 16 18 19 19 18 17 17 19 19 17 16 19 26 33 38 42 44 46 48 52 53 54 56 58 60 62 63 62 62 61 59 59 59 60 61 64 66 67 66 61 57 57 60 63 62 58 56 57 59 60 61 61 61 59 55 50 48 48 51 53 55 56 56 56 57 57 57 57 57 57 57 57 58 59 59 59 60
17 17 19 20 21 21 19 17 16 16 17 18 18 17 15 14 15 14 13 12 15 21 27 32 36 38 41 45 48 50 53 55 57 59 61 61 60 59 58 57 58 58 58 59 60 62 61 57 52 50 51 52 51 51 52 54 56 58 59 59 59 59 57 54 52 52 54 56 59 61 62 62 62 62 61 61 60 60 59 60 60 61 62 62 62
18 17 18 18 19 20 20 19 18 17 16 17 18 17 14 12 11 11 10 9 9 11 15 18 21 24 28 33 38 43 47 51 54 56 58 59 59 59 58 57 57 57 57 57 57 57 58 56 54 53 54 53 51 50 51 52 54 55 56 57 58 58 58 57 58 58 59 61 63 64 65 65 65 65 64 64 63 63 63 62 62 62 63 63 63
18 18 18 17 17 17 18 18 18 18 17 16 16 16 15 13 11 9 8 7 8 11 15 18 20 23 24 27 30 35 39 44 50 54 57 58 59 59 58 58 57 57 57 57 58 58 58 58 57 57 58 60 59 57 56 56 57 58 59 60 60 60 60 60 60 61 62 63 65 66 66 66 66 66 65 65 65 66 66 66 66 65 65 65 65
18 18 19 18 17 16 17 17 17 18 17 16 16 15 15 14 12 10 9 8 9 10 14 17 21 24 27 28 31 33 35 38 43 50 55 58 58 58 58 58 58 57 57 58 59 59 60 60 59 59 60 62 64 65 65 64 63 63 63 63 62 61 62 62 62 63 64 64 65 65 66 66 66 66 66 66 66 67 67 68 68 67 67 67 67
18 18 18 19 18 17 17 17 17 17 17 17 16 15 15 15 14 13 12 11 11 12 13 14 16 19 22 25 27 29 30 32 36 41 48 54 57 58 57 57 57 57 57 58 59 60 61 61 61 61 60 61 63 65 67 68 67 67 65 64 63 62 62 61 62 62 63 63 64 65 66 66 67 67 67 67 68 68 68 69 68 68 67 66 66
17 17 17 18 18 17 17 17 18 17 16 16 16 15 15 15 15 15 15 14 14 14 15 15 16 16 17 19 20 22 23 25 27 32 38 44 49 51 52 53 54 55 56 57 58 60 61 63 63 63 63 62 62 62 63 65 66 66 66 66 65 65 65 65 65 66 66 66 67 68 68 69 69 69 69 69 69 70 70 70 70 69 68 67 66
17 17 16 16 17 17 17 16 17 18 17 16 15 15 15 15 15 15 15 16 16 16 16 17 17 17 18 18 19 21 22 22 24 26 30 35 39 43 46 49 51 53 55 56 56 57 59 61 62 63 64 64 64 64 64 64 65 66 67 68 69 69 70 71 71 71 72 71 71 71 72 72 72 72 72 72 72 72 71 71 71 71 70 69 69
17 17 16 16 16 16 16 16 16 16 17 16 15 16 16 16 16 16 15 15 16 17 18 18 19 19 19 20 21 22 23 24 25 26 28 31 34 38 41 44 47 49 52 54 55 56 57 58 60 61 63 64 64 65 65 66 66 67 68 69 70 71 72 73 73 74 74 75 75 75 75 75 75 75 75 75 74 73 73 72 72 72 72 72 71
17 17 16 16 15 15 16 16 15 15 15 15 15 15 16 16 17 16 16 16 16 16 17 18 19 20 21 23 24 25 26 26 26 28 30 31 33 36 38 41 43 46 48 50 52 54 56 57 58 59 61 62 63 64 65 66 66 67 68 69 69 70 71 72 73 73 74 75 75 75 74 74 74 74 74 74 74 74 73 73 73 73 73 73 73
17 16 16 15 15 15 15 15 15 15 15 14 14 13 14 15 17 17 17 17 17 16 16 17 18 19 20 22 24 26 28 29 29 30 31 32 34 35 37 39 41 43 45 47 49 51 53 54 56 58 59 61 62 63 64 65 66 66 67 67 68 69 69 69 70 70 71 71 71 70 70 69 69 68 68 68 68 69 69 69 69 70 70 70 70
17 16 16 15 15 14 14 14 14 14 15 15 14 13 12 13 14 16 17 18 18 19 18 18 18 18 19 20 21 22 25 28 30 32 33 35 36 37 38 40 42 43 44 45 46 48 49 51 53 54 56 57 59 60 62 63 64 64 65 65 66 66 67 68 68 68 68 67 67 66 65 64 63 62 61 61 61 62 62 62 62 62 63 63 64
16 16 16 15 14 14 13 13 13 13 13 14 14 14 13 12 12 12 13 15 16 17 18 19 20 20 20 20 20 20 21 23 26 28 30 32 33 35 37 38 40 42 43 45 47 49 50 52 53 54 55 56 57 58 59 60 61 62 63 64 64 65 66 67 67 67 66 65 64 63 61 61 60 59 58 56 56 55 55 54 54 55 56 56 56
16 16 16 15 15 14 13 13 12 12 12 12 12 12 13 12 12 11 11 12 13 14 15 16 17 18 19 20 21 22 23 23 24 25 26 27 28 29 30 30 31 32 34 36 39 41 43 45 47 49 50 51 52 53 54 55 57 58 58 59 60 60 61 61 61 61 60 60 59 58 58 57 56 55 53 52 52 52 52 52 52 53 53 53 51
16 16 16 15 15 14 14 13 12 12 12 12 12 12 12 12 12 12 12 11 12 12 13 13 14 14 15 16 17 19 21 22 23 24 25 26 27 28 28 29 30 30 31 32 33 34 35 36 37 38 39 40 41 42 43 44 46 47 48 48 48 48 49 49 49 48 48 49 49 50 50 50 50 51 52 54 55 56 57 57 57 57 57 56 55
17 16 16 16 16 15 15 14 13 13 13 12 12 12 12 12 13 13 13 13 13 13 13 13 13 14 14 15 15 16 17 18 20 21 21 22 23 24 25 26 27 29 30 32 33 34 35 36 37 37 38 38 38 39 39 40 40 41 41 41 41 41 41 41 41 41 42 42 43 45 46 48 50 52 53 53 54 54 55 56 56 56 55 55 55
17 17 17 17 17 16 16 15 14 14 14 13 13 13 13 13 14 14 14 15 15 15 15 15 15 15 16 16 16 17 18 18 19 20 21 22 22 23 24 24 25 26 27 28 30 32 33 35 36 38 39 40 41 41 42 42 43 43 44 44 44 43 43 42 42 42 42 42 43 44 44 45 46 46 45 45 46 46 47 48 48 49 49 49 49
18 18 18 18 18 17 17 16 16 15 15 14 14 14 14 15 15 16 16 16 17 17 17 17 18 18 18 18 19 19 20 20 21 21 22 23 24 24 25 26 26 27 27 28 29 30 31 32 34 35 36 38 39 40 41 43 44 45 45 46 47 47 48 48 47 47 47 46 45 45 44 43 42 41 41 41 41 41 40 40 39 39 40 40 41
19 18 18 19 18 18 18 18 18 17 17 16 16 16 16 16 17 17 18 18 18 19 19 19 20 20 20 21 21 21 22 22 23 23 24 24 25 26 26 27 28 29 29 30 30 31 31 32 33 34 35 36 37 39 40 41 42 43 44 45 46 48 49 50 51 52 52 52 51 50 49 48 46 45 44 43 42 41 40 38 37 36 35 35 35
Wind_Direction
247 245 243 242 242 243 243 241 238 236 234 230 231 236 236 237 241 238 234 239 243 241 240 236 230 225 224 224 225 226 228 230 230 231 231 234 236 236 236 238 238 238 240 241 243 245 247 250 252 253 254 257 258 258 259 260 262 264 267 270 272 274 275 277 279 281 284 287 290 293 295 298 299 301 303 306 310 313 315 316 317 319 321 319 316
248 245 242 240 240 241 241 242 240 237 234 229 229 234 236 237 238 235 234 240 242 240 242 240 231 226 225 226 227 229 230 230 231 232 233 234 237 238 238 239 241 241 241 243 243 244 245 247 250 252 253 255 257 259 260 261 262 263 265 267 270 272 274 275 276 277 280 282 284 286 289 292 293 294 296 299 303 307 309 311 314 317 319 317 314
251 246 242 239 238 239 239 240 240 238 235 230 228 231 235 236 234 231 233 239 243 243 242 238 230 227 227 228 231 233 234 232 232 233 234 235 237 239 240 241 242 242 243 244 244 243 243 245 247 249 250 252 255 257 258 260 262 263 264 266 268 271 273 273 273 275 279 282 283 284 286 289 291 292 294 296 299 301 304 307 310 313 316 315 314
256 249 243 238 235 236 238 238 239 239 235 232 230 229 231 234 233 231 232 236 243 244 240 237 231 229 229 230 233 236 236 234 234 235 236 237 238 240 241 241 240 239 240 243 246 245 244 244 244 246 247 249 252 255 257 260 262 262 263 265 268 270 271 271 271 273 277 281 284 285 286 288 289 291 292 293 296 299 301 303 306 309 312 313 313
257 251 245 240 234 233 235 236 237 237 235 233 231 228 228 231 231 230 231 234 240 241 237 236 234 232 233 233 233 236 237 235 237 239 239 239 240 241 242 242 242 239 237 237 241 244 245 245 246 246 247 249 251 253 256 259 261 261 262 263 266 268 270 270 270 271 275 278 282 286 288 289 288 288 289 290 292 294 296 298 301 304 307 309 312
257 253 248 242 235 231 233 234 235 236 235 233 231 228 227 228 229 230 231 233 238 239 234 234 236 235 234 236 236 237 238 238 238 241 244 242 240 241 242 242 242 241 240 238 237 239 241 243 245 246 247 249 250 253 255 257 258 260 260 261 263 266 268 268 269 270 273 275 279 285 289 290 289 289 289 290 292 293 293 295 297 301 303 306 309
258 254 249 244 237 231 230 233 234 234 235 233 231 228 226 227 228 229 231 232 235 237 234 234 236 236 234 237 239 240 243 242 238 239 243 244 241 239 241 242 242 242 242 241 241 241 240 240 242 245 248 250 251 252 254 255 256 258 258 259 261 264 265 266 267 269 271 274 277 283 287 288 289 288 289 290 292 292 293 294 297 299 301 303 306
259 253 247 244 240 233 230 231 233 233 234 233 230 228 226 227 228 230 231 232 232 233 235 235 236 235 234 235 237 240 243 244 241 239 242 245 242 238 239 241 243 244 244 243 244 246 246 244 243 246 247 248 250 250 251 252 254 255 257 259 260 262 263 263 264 266 269 271 274 278 283 285 286 285 285 287 289 290 292 295 296 295 295 297 299
257 251 246 243 241 235 231 231 231 232 233 232 230 228 227 228 229 231 233 234 233 232 234 236 235 235 235 234 235 238 241 243 244 243 244 245 242 238 239 242 244 246 246 246 244 245 247 247 247 249 249 249 249 249 250 251 252 253 256 259 260 261 262 263 263 264 268 269 269 272 278 284 286 283 281 282 284 286 290 293 295 294 293 294 295
255 248 244 243 243 238 232 230 231 231 232 231 229 227 227 229 229 230 233 234 235 235 235 236 236 235 235 235 236 239 241 242 246 248 247 244 239 236 237 241 245 246 246 246 245 244 245 246 248 250 251 251 249 248 250 252 253 254 256 259 261 262 262 263 264 264 265 265 265 266 270 278 282 281 280 278 279 281 284 289 293 294 295 295 295
253 245 241 242 244 240 234 230 231 231 232 231 228 225 227 230 228 229 232 234 236 237 236 237 238 235 234 235 236 238 240 240 242 246 246 244 239 236 237 240 243 245 246 245 245 244 245 247 249 250 252 252 250 248 249 252 254 257 259 260 263 264 264 264 264 265 263 262 262 261 263 268 272 274 277 277 277 278 280 284 288 290 293 296 296
250 243 240 242 244 243 237 232 231 231 231 231 228 225 227 230 228 227 231 235 236 235 235 238 240 237 235 235 236 237 238 238 237 238 240 240 237 235 237 240 242 244 245 244 244 245 246 249 251 251 252 254 251 247 249 251 254 257 260 262 264 266 267 266 266 266 265 263 262 260 259 263 267 270 273 276 277 279 280 281 282 284 289 294 296
247 243 240 242 244 244 240 235 232 232 232 231 228 225 225 229 229 226 229 234 236 235 233 235 239 238 235 235 236 236 237 238 237 235 235 235 235 234 235 238 238 240 241 241 242 243 245 249 250 248 252 254 248 246 250 254 256 258 259 262 265 267 269 270 268 268 266 263 262 261 259 262 266 270 272 274 277 280 281 281 280 280 284 290 293
248 245 243 244 246 246 242 237 233 232 232 231 229 226 223 226 228 228 230 234 236 235 233 232 236 237 234 235 236 235 235 236 237 238 237 234 233 235 237 237 236 236 237 238 239 240 242 245 246 246 249 249 245 246 254 258 260 261 260 261 265 266 269 270 269 267 267 264 262 260 259 262 266 269 272 275 279 282 283 283 282 281 284 287 290
251 248 245 246 247 246 243 238 233 231 231 231 230 228 224 223 227 229 232 235 237 237 235 233 235 235 233 234 236 235 234 235 235 238 240 237 235 235 236 237 236 234 235 235 236 237 239 241 243 244 245 245 244 249 257 261 262 263 261 261 263 265 266 268 268 266 265 264 262 261 260 261 264 267 271 275 278 282 284 284 284 284 285 287 290
254 249 245 243 243 242 240 236 232 229 229 229 230 230 226 223 225 229 233 235 236 237 237 236 236 236 233 231 233 234 233 234 235 236 238 240 239 236 235 236 235 234 234 234 235 236 237 239 240 241 242 243 244 249 256 259 261 262 261 259 260 262 264 265 265 264 264 263 263 262 262 262 263 266 269 273 277 281 283 285 287 287 287 289 291
257 250 245 240 239 239 237 235 232 229 228 227 228 230 228 224 223 228 234 235 235 237 239 238 239 239 235 232 234 235 233 232 234 235 236 238 239 237 236 237 237 236 235 236 238 240 240 241 241 241 242 242 243 246 251 255 258 259 257 255 257 260 261 262 262 263 263 264 264 264 262 262 263 264 268 273 278 282 284 286 288 288 288 289 290
264 253 247 242 239 236 235 234 232 230 228 226 226 228 229 226 225 227 234 235 234 235 238 239 240 241 238 235 235 238 237 233 232 236 240 240 238 238 238 238 239 240 240 240 241 243 244 245 244 246 246 245 243 244 247 250 254 254 252 252 255 258 258 259 260 260 261 263 264 263 262 261 261 264 269 275 279 282 284 287 288 286 286 288 288
281 265 252 244 240 236 233 232 231 230 227 226 226 226 227 229 229 229 233 234 232 232 234 239 244 244 242 239 237 238 240 237 234 237 244 245 241 239 240 241 243 243 242 242 243 246 248 248 249 251 252 249 247 246 246 248 249 247 250 254 255 255 256 257 258 259 260 262 262 263 263 262 262 264 269 274 276 279 282 284 284 282 284 287 288
291 281 264 249 241 236 233 230 229 229 228 227 227 226 226 229 230 231 235 235 233 233 233 236 243 245 243 241 238 238 241 241 238 240 246 250 249 245 243 244 245 243 242 243 244 247 249 247 247 250 250 249 250 247 246 247 245 244 250 254 253 252 254 255 256 259 261 262 264 266 267 267 265 266 269 271 272 274 276 278 279 280 282 286 289
294 280 268 254 243 236 233 231 229 229 228 228 228 228 227 228 230 232 236 236 234 234 233 234 239 243 243 241 238 238 241 242 242 243 246 250 252 249 246 246 246 245 248 251 251 252 252 249 250 254 254 254 253 247 243 245 247 248 251 252 250 250 252 254 256 259 261 263 264 266 266 267 268 269 271 273 273 273 273 273 276 278 281 286 290
321 292 268 255 246 239 235 232 230 229 229 229 230 230 228 228 229 231 236 238 237 237 235 234 238 244 246 245 241 238 240 243 245 246 247 248 249 247 246 247 247 248 250 254 256 257 256 254 255 258 256 254 252 245 241 244 248 250 251 251 250 250 251 252 255 258 261 263 264 264 263 264 266 268 270 272 274 273 271 272 274 278 282 286 289
341 326 296 267 253 246 240 236 233 230 230 230 231 233 232 231 231 231 233 236 238 240 238 236 238 243 247 247 245 242 242 244 247 248 247 247 248 250 249 249 250 250 250 252 254 254 255 256 257 257 255 253 251 249 247 248 247 247 248 249 250 250 251 253 254 257 260 261 262 263 264 265 266 267 267 268 270 270 270 271 274 278 282 285 286
347 347 335 310 278 258 249 244 241 237 235 233 233 234 235 235 235 235 235 235 237 239 241 240 241 244 247 248 248 247 246 246 247 248 248 248 250 254 258 257 256 254 252 253 254 254 254 257 258 257 254 252 249 248 247 247 246 244 244 247 249 249 251 253 254 256 258 259 260 261 264 266 267 267 266 267 268 270 271 273 275 278 280 283 285
346 353 353 346 330 302 273 259 251 246 243 241 239 237 236 237 238 238 238 238 238 239 241 242 243 245 246 247 248 248 248 248 249 249 249 249 250 253 256 257 256 253 251 250 252 253 254 256 258 257 254 250 246 245 244 245 248 247 246 247 249 249 251 253 255 256 256 257 258 259 262 265 267 266 266 268 270 272 274 275 277 279 281 283 284
340 347 353 354 352 344 330 304 275 258 250 247 244 242 239 238 239 239 240 241 242 243 244 244 244 245 245 246 247 247 248 249 251 251 250 249 249 250 249 248 249 251 252 252 251 253 254 254 254 254 252 247 244 243 243 246 250 252 251 251 251 251 253 255 256 256 256 257 258 259 261 264 266 267 268 269 271 274 277 279 280 280 280 280 279
329 335 341 347 351 349 341 331 313 288 269 256 249 244 241 239 238 239 240 242 244 245 246 247 247 247 247 247 248 248 249 251 252 253 252 250 249 249 248 247 248 250 253 253 253 253 253 252 253 253 251 247 243 244 246 247 249 252 254 254 254 254 255 256 257 257 257 257 258 260 261 263 266 268 269 270 272 274 277 279 279 280 280 279 276
318 322 328 334 339 339 334 329 323 313 300 284 267 256 248 243 239 238 238 239 241 244 246 247 248 248 248 249 250 251 252 252 253 253 253 252 251 251 250 249 249 250 250 251 254 254 249 248 251 255 256 251 247 248 249 247 248 253 256 255 254 254 254 253 252 252 253 255 257 260 263 264 266 269 270 271 272 274 275 276 277 278 279 279 278
310 314 318 323 326 327 324 322 321 319 316 308 290 270 259 252 244 240 239 238 239 241 244 246 248 248 248 248 249 250 250 251 252 253 253 253 253 252 251 249 250 252 251 251 252 253 249 245 247 253 256 252 247 250 256 256 255 258 259 256 253 252 250 248 247 248 252 256 260 262 263 265 266 268 270 270 271 273 275 276 277 277 278 278 278
306 307 309 312 315 316 316 316 317 319 320 318 308 288 270 260 252 244 240 238 238 240 242 244 246 247 247 246 246 247 247 247 249 251 251 252 252 253 252 251 251 254 256 255 253 252 251 250 250 253 253 249 250 261 270 268 263 261 261 259 256 254 251 249 250 253 257 260 261 262 262 264 265 267 268 270 271 273 274 275 276 277 277 278 279
309 305 303 304 304 305 306 308 312 316 317 312 304 296 288 278 266 252 243 239 238 239 240 242 244 246 246 245 244 243 243 243 244 246 247 249 250 251 251 250 251 253 255 256 255 254 254 253 253 254 254 255 261 270 273 267 260 258 260 258 254 252 251 250 251 255 258 259 260 261 262 263 264 265 267 269 270 272 273 274 274 274 275 276 278
315 305 300 299 300 298 296 299 306 312 313 306 296 294 298 298 288 270 252 242 239 239 240 242 244 245 245 245 243 242 241 241 241 242 244 245 247 248 247 246 247 249 251 252 254 255 255 255 255 257 260 263 268 269 266 260 256 256 256 255 252 253 257 255 252 254 258 259 260 262 262 263 265 266 267 269 270 272 272 272 272 272 272 273 275
322 309 300 299 299 298 294 292 296 304 309 306 298 294 299 303 297 284 265 248 242 241 241 242 244 245 246 247 247 244 243 243 243 243 244 245 246 247 246 244 244 246 248 250 252 254 255 255 255 255 257 260 261 259 256 254 254 253 253 253 252 255 260 260 256 256 259 261 263 265 266 267 268 269 269 270 271 272 272 272 272 272 271 272 274
326 314 304 300 297 296 295 291 288 291 298 301 298 292 292 298 298 292 282 263 244 240 242 245 247 248 249 252 253 250 248 247 247 246 247 247 248 249 248 246 244 245 247 249 251 253 254 253 249 246 247 250 251 250 249 249 249 248 249 251 252 255 260 263 262 262 263 264 266 268 269 270 270 271 271 271 271 271 271 271 272 272 272 273 274
328 321 313 304 297 294 294 292 288 285 288 292 292 287 282 285 292 294 292 279 250 234 237 245 248 248 247 251 255 255 252 250 248 248 248 248 249 250 251 250 249 248 248 249 251 252 253 253 249 243 241 244 246 247 247 249 249 249 250 253 256 259 263 265 266 267 268 268 268 269 269 269 270 270 270 271 271 270 271 271 271 272 272 273 274
330 326 321 314 304 296 292 290 288 285 284 286 286 282 276 275 282 289 291 282 258 237 231 233 237 240 240 241 246 252 254 253 251 248 246 247 248 249 250 251 251 251 250 251 252 253 254 256 255 250 246 246 247 248 249 249 251 252 254 257 260 262 264 266 267 268 268 269 269 269 269 269 269 270 270 270 270 271 271 270 270 271 271 272 272
335 330 325 321 314 302 292 287 286 284 281 281 281 278 273 271 274 281 285 285 275 259 245 237 237 241 242 241 243 249 255 259 257 251 247 245 245 246 247 249 251 252 251 251 253 254 255 256 257 257 254 252 251 252 253 254 255 256 258 260 262 264 266 267 267 268 268 268 268 269 269 270 271 271 271 271 271 272 272 272 271 271 271 271 272
339 335 329 325 321 312 299 289 286 285 283 280 280 278 274 270 269 272 275 277 277 275 270 262 255 252 251 250 250 252 255 260 262 259 254 248 245 245 246 249 250 252 253 253 253 254 255 256 257 259 259 257 255 255 256 257 259 260 262 263 265 267 268 268 269 269 269 270 270 271 271 272 272 272 272 272 272 272 272 272 273 273 272 273 273
339 337 334 328 324 320 311 298 291 289 288 284 282 282 280 276 272 269 269 270 271 273 274 273 272 270 268 267 266 264 263 263 263 263 260 255 251 248 249 250 251 253 254 255 255 255 256 257 258 259 261 261 261 259 259 259 260 262 263 265 266 268 269 271 271 271 271 270 270 271 271 271 271 272 272 272 272 272 272 273 273 273 273 273 273
338 338 337 334 329 326 322 312 301 296 293 289 286 284 284 285 282 277 273 270 269 269 271 272 274 274 275 275 276 275 274 272 268 264 261 258 255 253 253 253 254 254 255 256 257 258 258 258 259 259 260 261 262 263 262 262 262 262 263 264 265 267 268 269 270 270 269 269 268 268 268 268 268 269 269 270 270 270 271 271 272 272 272 272 272
337 337 337 337 334 330 328 324 316 308 302 297 291 287 286 288 289 289 288 283 278 274 271 271 272 273 275 277 277 276 275 273 271 268 265 262 260 258 258 258 258 258 258 258 259 259 259 259 260 260 261 261 262 263 263 263 263 263 263 263 264 264 264 265 265 266 266 266 267 267 267 267 268 268 269 269 269 270 270 270 270 270 270 270 270
335 337 337 337 337 334 332 330 327 322 317 310 302 293 288 285 285 288 292 294 294 290 285 280 275 272 272 272 272 273 272 271 270 269 268 266 265 264 263 263 263 262 262 262 261 261 261 261 261 261 261 262 262 263 263 263 264 264 264 264 264 264 264 265 265 265 266 266 267 268 268 268 269 269 269 269 270 270 270 269 269 269 269 269 269
332 333 335 336 337 336 335 334 332 329 328 326 321 311 300 291 285 283 283 285 288 290 292 292 290 286 282 278 273 269 268 268 268 268 267 267 266 266 266 266 266 266 265 265 265 264 263 263 263 262 262 262 263 263 264 264 265 265 265 265 265 265 265 266 266 266 267 267 267 268 268 268 269 269 269 270 270 270 270 270 270 270 270 270 270
329 330 332 334 335 336 336 336 335 334 332 331 332 330 323 312 301 293 287 284 283 281 282 285 288 291 292 291 286 278 272 270 270 271 270 270 270 269 269 269 268 268 267 267 266 266 265 265 265 264 264 264 264 264 265 265 266 266 266 266 266 266 267 267 267 268 268 268 269 269 269 268 268 269 269 270 270 270 270 270 270 270 270 270 270
326 328 330 331 331 333 334 334 334 335 335 334 335 335 334 331 324 315 306 299 295 291 288 285 284 284 285 286 286 283 279 275 273 273 273 273 273 273 273 273 273 272 271 270 269 268 267 267 267 267 267 267 267 267 267 267 267 268 268 268 268 269 268 268 268 269 269 270 270 270 270 270 270 270 270 270 270 270 270 270 270 270 270 270 269
323 324 326 327 327 328 330 330 329 330 332 332 333 334 334 335 334 331 326 320 314 310 306 302 297 293 289 286 283 281 279 277 275 274 273 273 273 274 274 274 275 274 273 272 271 270 270 270 269 269 269 269 269 269 269 269 270 270 271 271 272 272 272 272 272 272 272 273 273 273 273 272 272 271 271 271 272 272 272 273 273 274 274 273 272
318 319 321 322 323 323 324 325 326 327 326 327 327 328 329 331 332 332 333 331 327 324 321 318 314 310 305 299 294 290 287 285 283 282 280 279 278 277 276 275 275 274 273 273 272 271 270 270 270 269 269 269 269 269 269 269 269 269 269 270 270 270 270 270 270 270 270 271 271 271 271 271 271 272 273 275 276 276 277 277 276 276 276 276 275
313 315 316 317 318 319 320 321 322 323 323 324 325 326 327 328 329 329 329 329 328 327 324 322 320 317 314 310 306 302 299 296 294 293 292 291 289 287 285 283 281 279 278 277 276 275 274 274 273 273 272 272 272 271 271 270 269 268 267 266 265 265 265 265 265 264 264 265 265 266 267 269 271 273 275 276 277 278 278 279 279 278 278 278 278
308 309 311 312 312 313 314 315 316 318 319 320 322 324 326 327 327 327 327 326 326 325 323 322 320 318 316 314 312 309 307 305 303 302 301 300 299 299 297 295 292 290 287 286 284 283 282 281 280 279 278 277 277 276 275 274 272 271 270 268 267 267 267 267 267 266 266 265 265 265 266 266 267 268 269 271 272 273 275 276 276 276 276 276 276
303 304 305 306 307 308 308 309 309 309 311 312 314 316 318 319 320 321 321 321 320 320 320 319 319 318 317 316 314 313 312 310 309 308 306 305 304 303 302 301 300 298 296 294 292 290 288 287 286 285 284 283 282 281 280 279 277 276 275 273 272 271 270 269 269 269 269 269 269 268 268 267 266 265 265 265 266 266 267 268 268 268 267 266 265
297 298 299 300 301 302 302 302 302 302 302 303 304 306 307 309 311 312 313 313 314 314 314 314 315 315 315 315 315 314 313 313 312 311 310 308 307 306 304 303 302 301 299 298 297 295 293 292 290 289 287 286 286 285 284 283 282 281 280 279 278 276 274 273 272 271 270 270 270 270 270 270 269 268 267 266 265 264 263 263 262 261 259 257 256
Height
5645 5647 5651 5655 5658 5661 5666 5671 5676 5681 5687 5695 5702 5704 5706 5709 5713 5717 5720 5721 5722 5724 5725 5727 5728 5730 5734 5739 5743 5747 5750 5752 5754 5757 5760 5762 5765 5768 5771 5773 5775 5778 5781 5783 5785 5787 5789 5791 5792 5794 5795 5796 5797 5798 5799 5800 5801 5802 5802 5802 5803 5803 5803 5803 5803 5803 5803 5804 5803 5803 5803 5803 5802 5801 5801 5801 5800 5800 5799 5799 5799 5799 5798 5797 5795
5637 5639 5642 5646 5649 5652 5657 5662 5667 5673 5681 5688 5694 5697 5699 5703 5707 5712 5715 5715 5717 5719 5721 5723 5725 5729 5733 5737 5740 5743 5745 5746 5750 5753 5755 5757 5760 5764 5767 5770 5773 5776 5778 5780 5782 5784 5786 5787 5789 5790 5791 5792 5794 5795 5797 5798 5798 5799 5799 5799 5799 5799 5799 5800 5800 5799 5799 5800 5800 5800 5800 5800 5799 5799 5798 5798 5798 5798 5797 5797 5796 5796 5796 5795 5794
5630 5631 5633 5637 5640 5643 5649 5655 5659 5665 5673 5680 5685 5689 5692 5696 5701 5706 5708 5709 5711 5714 5717 5720 5722 5725 5729 5733 5736 5739 5740 5742 5745 5748 5750 5753 5756 5759 5763 5766 5770 5772 5775 5777 5778 5780 5782 5783 5784 5786 5787 5788 5790 5791 5793 5794 5795 5796 5796 5796 5796 5796 5796 5796 5796 5796 5795 5795 5796 5796 5797 5796 5796 5796 5795 5795 5795 5795 5795 5794 5794 5793 5793 5793 5792
5624 5624 5624 5627 5631 5635 5640 5646 5651 5657 5665 5671 5675 5681 5684 5687 5693 5699 5699 5700 5705 5709 5712 5715 5717 5719 5721 5725 5729 5732 5736 5739 5741 5742 5745 5748 5752 5754 5757 5760 5763 5766 5770 5773 5774 5776 5778 5780 5781 5782 5782 5784 5786 5787 5789 5790 5792 5792 5792 5792 5792 5792 5793 5793 5793 5792 5792 5791 5791 5792 5792 5793 5793 5793 5793 5792 5792 5792 5791 5791 5790 5790 5790 5790 5789
5616 5616 5616 5618 5622 5626 5631 5637 5642 5648 5656 5661 5665 5672 5677 5679 5686 5692 5693 5694 5698 5703 5706 5709 5712 5714 5716 5719 5723 5726 5731 5735 5737 5738 5741 5744 5747 5750 5752 5755 5757 5761 5764 5766 5768 5771 5774 5777 5778 5778 5778 5780 5782 5783 5785 5786 5787 5788 5788 5788 5788 5789 5789 5789 5789 5789 5789 5788 5787 5787 5788 5788 5789 5789 5789 5789 5789 5788 5788 5788 5787 5787 5786 5786 5786
5609 5608 5609 5610 5614 5618 5622 5628 5634 5639 5646 5652 5658 5666 5671 5673 5678 5684 5686 5688 5692 5696 5699 5703 5707 5710 5712 5715 5718 5722 5727 5730 5731 5734 5737 5739 5742 5744 5746 5749 5752 5756 5758 5760 5762 5765 5768 5771 5773 5774 5774 5776 5778 5780 5781 5781 5782 5783 5784 5785 5785 5785 5785 5785 5785 5785 5785 5785 5784 5784 5784 5784 5784 5785 5784 5784 5785 5785 5784 5784 5784 5783 5783 5782 5782
5601 5601 5602 5604 5607 5611 5615 5620 5625 5631 5637 5644 5651 5658 5663 5667 5671 5675 5678 5682 5686 5690 5694 5697 5701 5705 5708 5711 5713 5717 5722 5724 5725 5727 5730 5733 5736 5738 5740 5743 5747 5751 5754 5756 5759 5761 5763 5765 5767 5769 5771 5772 5774 5775 5776 5777 5778 5779 5780 5781 5781 5781 5782 5782 5781 5782 5782 5782 5781 5781 5781 5780 5780 5780 5780 5780 5780 5780 5780 5780 5780 5780 5779 5778 5778
5594 5594 5596 5598 5600 5604 5608 5612 5618 5624 5629 5636 5644 5650 5656 5661 5664 5667 5671 5675 5680 5684 5688 5691 5695 5699 5702 5706 5709 5712 5717 5719 5721 5722 5724 5726 5728 5732 5735 5738 5742 5746 5749 5752 5755 5757 5759 5761 5763 5765 5767 5768 5769 5770 5771 5772 5773 5774 5775 5777 5777 5777 5777 5778 5778 5778 5779 5779 5779 5778 5777 5777 5777 5777 5776 5776 5776 5776 5775 5776 5776 5776 5775 5775 5775
5587 5588 5590 5592 5595 5597 5601 5605 5611 5617 5621 5627 5636 5644 5649 5654 5657 5660 5664 5668 5673 5678 5682 5685 5688 5692 5697 5701 5704 5706 5710 5714 5716 5717 5719 5720 5722 5726 5731 5735 5738 5742 5745 5747 5749 5752 5754 5756 5759 5760 5762 5764 5764 5765 5766 5767 5768 5769 5771 5772 5773 5773 5774 5773 5774 5775 5775 5775 5776 5775 5774 5774 5774 5773 5772 5772 5772 5771 5771 5771 5772 5772 5772 5772 5772
5582 5583 5585 5587 5589 5591 5594 5599 5605 5609 5613 5619 5629 5637 5642 5646 5650 5654 5657 5660 5665 5671 5676 5679 5682 5687 5691 5695 5699 5702 5704 5707 5708 5709 5712 5713 5716 5720 5724 5728 5732 5736 5739 5741 5744 5746 5748 5750 5753 5755 5757 5758 5759 5760 5762 5762 5763 5764 5766 5767 5768 5769 5769 5770 5770 5771 5771 5771 5772 5771 5771 5771 5770 5769 5768 5768 5767 5767 5767 5767 5767 5768 5768 5768 5768
5577 5578 5580 5582 5584 5585 5588 5593 5598 5602 5606 5612 5621 5630 5635 5639 5644 5649 5651 5653 5657 5664 5670 5674 5677 5680 5685 5689 5693 5696 5698 5699 5700 5701 5704 5707 5709 5714 5718 5721 5725 5728 5731 5735 5738 5740 5743 5744 5747 5749 5751 5752 5753 5756 5757 5758 5758 5760 5761 5762 5763 5764 5765 5765 5766 5766 5766 5766 5767 5767 5767 5767 5766 5764 5764 5764 5763 5763 5763 5762 5762 5762 5762 5763 5764
5572 5574 5576 5578 5579 5580 5583 5588 5592 5596 5601 5606 5614 5624 5630 5633 5637 5642 5644 5646 5650 5656 5663 5668 5671 5673 5677 5682 5686 5689 5692 5693 5693 5694 5698 5700 5703 5707 5711 5714 5717 5720 5724 5728 5731 5734 5736 5738 5740 5742 5745 5746 5748 5750 5752 5753 5754 5755 5756 5757 5758 5759 5760 5761 5762 5761 5761 5761 5761 5762 5763 5763 5761 5760 5760 5759 5758 5758 5758 5758 5757 5757 5757 5758 5759
5569 5570 5572 5573 5575 5577 5580 5583 5587 5592 5597 5601 5607 5616 5623 5627 5631 5635 5637 5640 5644 5650 5657 5661 5663 5665 5670 5675 5679 5682 5684 5686 5688 5689 5691 5694 5697 5700 5704 5707 5709 5712 5716 5719 5723 5726 5729 5731 5733 5735 5738 5740 5742 5744 5745 5747 5748 5750 5751 5752 5752 5754 5755 5756 5757 5757 5756 5756 5757 5758 5759 5757 5756 5755 5754 5753 5753 5754 5754 5754 5752 5751 5752 5753 5754
5566 5567 5569 5570 5572 5574 5577 5579 5583 5587 5591 5595 5600 5607 5615 5622 5627 5630 5632 5634 5639 5645 5650 5653 5655 5659 5664 5668 5672 5675 5677 5680 5682 5684 5686 5690 5693 5695 5697 5699 5702 5705 5708 5711 5715 5718 5721 5723 5726 5729 5732 5734 5736 5737 5738 5740 5742 5744 5745 5746 5747 5748 5749 5750 5751 5751 5751 5751 5752 5753 5753 5752 5751 5750 5749 5748 5748 5749 5749 5749 5748 5747 5747 5748 5749
5563 5564 5566 5568 5570 5571 5573 5575 5578 5581 5585 5589 5594 5600 5608 5615 5620 5625 5628 5630 5633 5638 5642 5646 5649 5653 5658 5662 5664 5667 5671 5673 5676 5679 5682 5685 5688 5689 5691 5693 5696 5698 5700 5703 5706 5709 5712 5715 5718 5721 5725 5727 5729 5731 5732 5733 5735 5737 5739 5740 5741 5742 5742 5744 5745 5746 5746 5746 5746 5746 5746 5746 5746 5745 5744 5743 5743 5744 5744 5744 5744 5743 5742 5743 5744
5559 5561 5562 5564 5566 5567 5568 5570 5573 5576 5580 5584 5589 5594 5602 5609 5614 5618 5622 5623 5627 5633 5636 5639 5643 5648 5653 5656 5658 5662 5665 5668 5670 5673 5677 5680 5682 5683 5685 5687 5689 5691 5694 5696 5699 5701 5704 5707 5710 5713 5717 5719 5722 5725 5726 5727 5728 5730 5732 5734 5735 5735 5736 5737 5739 5739 5739 5740 5740 5740 5740 5740 5740 5739 5739 5739 5739 5740 5738 5739 5740 5739 5737 5737 5739
5556 5557 5558 5560 5561 5562 5563 5565 5568 5571 5575 5579 5584 5589 5596 5603 5607 5610 5613 5616 5621 5627 5631 5635 5638 5642 5647 5651 5655 5658 5660 5662 5665 5669 5672 5675 5676 5677 5679 5681 5684 5687 5690 5693 5695 5696 5699 5701 5703 5705 5708 5711 5715 5718 5719 5719 5720 5723 5725 5726 5727 5728 5729 5732 5733 5733 5733 5733 5734 5734 5734 5734 5734 5733 5734 5735 5736 5736 5734 5734 5736 5733 5730 5731 5733
5553 5553 5554 5555 5557 5558 5559 5561 5564 5567 5571 5575 5579 5584 5590 5596 5600 5604 5607 5611 5615 5620 5625 5630 5632 5637 5642 5646 5649 5652 5654 5657 5660 5663 5666 5669 5670 5672 5675 5678 5680 5682 5686 5689 5690 5692 5694 5696 5697 5699 5701 5704 5706 5709 5711 5711 5712 5715 5717 5718 5718 5719 5722 5725 5727 5727 5726 5726 5727 5727 5727 5728 5728 5728 5729 5731 5732 5732 5729 5730 5731 5727 5725 5726 5727
5550 5550 5550 5551 5553 5554 5556 5558 5560 5563 5567 5571 5574 5579 5584 5589 5594 5598 5601 5605 5610 5614 5620 5624 5626 5630 5636 5640 5643 5645 5647 5651 5654 5657 5659 5662 5664 5668 5672 5674 5675 5677 5679 5682 5684 5686 5689 5691 5694 5696 5697 5699 5700 5701 5701 5702 5704 5707 5709 5709 5709 5712 5716 5719 5720 5719 5718 5718 5718 5719 5721 5723 5724 5724 5726 5727 5726 5726 5725 5724 5724 5722 5720 5721 5721
5549 5548 5548 5548 5549 5551 5552 5555 5557 5560 5563 5567 5570 5574 5579 5583 5588 5592 5594 5598 5604 5609 5614 5619 5622 5624 5628 5632 5635 5639 5641 5644 5648 5651 5653 5656 5659 5664 5666 5667 5669 5670 5672 5675 5678 5681 5683 5685 5687 5689 5690 5692 5694 5694 5694 5695 5697 5699 5701 5702 5703 5706 5710 5711 5711 5711 5710 5709 5711 5714 5716 5717 5718 5719 5720 5720 5720 5720 5719 5718 5717 5716 5715 5715 5716
5549 5548 5546 5546 5547 5548 5550 5552 5555 5558 5561 5564 5567 5571 5575 5578 5582 5586 5589 5593 5598 5603 5609 5613 5617 5619 5620 5622 5626 5631 5634 5637 5641 5644 5647 5651 5655 5659 5661 5663 5664 5666 5670 5673 5675 5677 5679 5681 5682 5682 5683 5684 5686 5686 5685 5687 5690 5694 5696 5697 5699 5701 5702 5703 5703 5703 5702 5701 5704 5709 5710 5710 5712 5714 5714 5713 5713 5713 5713 5712 5711 5710 5709 5710 5710
5548 5546 5545 5545 5545 5547 5548 5550 5553 5555 5558 5562 5565 5568 5572 5575 5578 5582 5585 5588 5593 5597 5603 5607 5610 5612 5613 5614 5618 5623 5627 5630 5634 5638 5642 5646 5651 5654 5657 5659 5660 5663 5666 5669 5670 5671 5673 5675 5677 5677 5676 5676 5677 5678 5679 5681 5686 5691 5692 5691 5693 5695 5695 5695 5696 5697 5696 5695 5697 5701 5703 5704 5706 5707 5707 5706 5706 5705 5705 5705 5705 5704 5704 5704 5704
5548 5545 5544 5543 5544 5545 5546 5548 5550 5553 5555 5559 5562 5566 5569 5571 5574 5578 5581 5585 5588 5591 5596 5601 5605 5607 5609 5610 5613 5617 5620 5623 5627 5632 5637 5641 5646 5649 5653 5655 5657 5658 5660 5661 5662 5663 5664 5667 5671 5671 5668 5667 5670 5674 5677 5677 5679 5684 5685 5684 5685 5687 5688 5689 5690 5690 5690 5690 5691 5693 5695 5696 5698 5700 5700 5699 5699 5698 5698 5699 5699 5699 5698 5698 5697
5549 5547 5544 5543 5543 5543 5545 5546 5548 5550 5553 5555 5558 5561 5565 5568 5571 5573 5576 5580 5583 5586 5590 5595 5599 5602 5605 5608 5610 5613 5617 5620 5623 5627 5632 5637 5641 5645 5648 5650 5651 5652 5653 5654 5654 5656 5658 5660 5663 5662 5660 5661 5664 5668 5671 5671 5671 5674 5677 5677 5678 5679 5681 5682 5683 5683 5683 5684 5684 5685 5686 5688 5689 5691 5691 5691 5691 5692 5693 5693 5693 5692 5692 5692 5691
5551 5548 5546 5544 5543 5543 5543 5545 5546 5548 5550 5552 5554 5557 5560 5563 5565 5568 5571 5574 5578 5582 5585 5589 5593 5596 5600 5603 5605 5608 5612 5616 5618 5623 5628 5632 5635 5639 5642 5643 5643 5644 5646 5647 5648 5651 5653 5654 5654 5652 5652 5655 5658 5660 5663 5665 5666 5667 5669 5670 5671 5672 5674 5675 5676 5676 5676 5677 5677 5678 5679 5680 5681 5683 5682 5682 5684 5685 5686 5687 5686 5685 5685 5685 5685
5551 5549 5548 5546 5545 5544 5544 5545 5545 5546 5547 5549 5550 5552 5554 5557 5559 5562 5566 5569 5573 5577 5580 5583 5587 5591 5594 5597 5599 5602 5607 5611 5614 5618 5623 5626 5630 5633 5636 5637 5637 5638 5639 5640 5642 5645 5646 5647 5647 5646 5644 5646 5650 5653 5656 5659 5660 5661 5663 5663 5664 5666 5667 5668 5668 5669 5669 5669 5670 5671 5672 5673 5674 5675 5675 5675 5677 5678 5678 5679 5678 5678 5679 5679 5678
5550 5549 5548 5547 5546 5546 5545 5545 5545 5546 5546 5546 5547 5548 5550 5552 5554 5558 5561 5564 5568 5571 5573 5576 5580 5584 5588 5590 5594 5599 5604 5608 5610 5613 5617 5620 5624 5627 5629 5631 5631 5632 5633 5634 5636 5638 5640 5640 5640 5640 5640 5641 5645 5648 5650 5653 5654 5656 5657 5658 5659 5661 5661 5660 5661 5660 5660 5660 5661 5663 5664 5665 5666 5667 5668 5668 5670 5671 5671 5671 5671 5670 5671 5671 5671
5549 5548 5548 5547 5546 5546 5545 5545 5545 5545 5545 5545 5545 5545 5546 5548 5550 5553 5555 5558 5561 5563 5566 5569 5572 5578 5582 5585 5590 5596 5599 5601 5603 5605 5609 5613 5617 5619 5622 5624 5625 5625 5626 5628 5630 5633 5635 5635 5635 5636 5637 5639 5642 5644 5646 5648 5650 5651 5652 5652 5653 5653 5653 5652 5652 5651 5649 5650 5652 5654 5656 5657 5658 5660 5660 5661 5662 5663 5663 5664 5664 5663 5663 5663 5663
5548 5547 5547 5546 5545 5545 5544 5543 5543 5542 5542 5542 5542 5542 5543 5544 5546 5548 5550 5553 5555 5556 5559 5562 5565 5570 5575 5580 5584 5589 5591 5592 5595 5598 5601 5605 5609 5612 5614 5617 5618 5619 5620 5622 5624 5627 5629 5629 5629 5630 5632 5634 5636 5638 5640 5643 5645 5645 5645 5647 5647 5646 5645 5645 5643 5642 5641 5643 5645 5647 5648 5649 5651 5651 5652 5653 5654 5654 5654 5655 5656 5656 5656 5656 5656
5547 5546 5546 5545 5545 5544 5543 5542 5541 5540 5540 5539 5539 5539 5540 5540 5542 5543 5545 5547 5549 5551 5553 5556 5558 5562 5567 5572 5577 5581 5583 5585 5588 5590 5593 5597 5600 5603 5606 5608 5610 5612 5613 5615 5616 5618 5621 5622 5623 5624 5626 5627 5628 5629 5632 5635 5637 5638 5639 5641 5640 5639 5638 5637 5635 5635 5636 5637 5638 5639 5640 5641 5642 5643 5644 5645 5646 5647 5647 5647 5648 5648 5648 5648 5648
5546 5545 5544 5544 5544 5543 5543 5542 5541 5540 5539 5538 5537 5537 5537 5537 5538 5539 5540 5542 5544 5546 5547 5549 5552 5555 5560 5563 5568 5572 5575 5577 5580 5583 5585 5588 5591 5594 5597 5600 5602 5604 5606 5607 5608 5610 5612 5615 5617 5618 5620 5620 5621 5621 5622 5625 5628 5631 5632 5632 5630 5629 5628 5626 5626 5627 5629 5630 5631 5632 5632 5633 5634 5635 5636 5637 5638 5639 5640 5640 5640 5641 5641 5641 5641
5546 5543 5541 5541 5541 5542 5542 5541 5540 5539 5538 5537 5536 5535 5534 5533 5534 5535 5536 5537 5539 5541 5542 5544 5547 5551 5554 5555 5559 5563 5566 5569 5572 5575 5577 5580 5582 5586 5589 5592 5594 5596 5598 5600 5601 5602 5604 5607 5610 5612 5613 5613 5614 5615 5615 5616 5620 5622 5623 5622 5621 5620 5619 5619 5618 5619 5620 5622 5623 5624 5625 5626 5627 5627 5628 5629 5630 5631 5632 5632 5632 5633 5634 5634 5634
5544 5542 5540 5539 5538 5539 5539 5539 5539 5538 5537 5536 5535 5534 5533 5532 5531 5531 5532 5533 5534 5536 5538 5540 5543 5546 5549 5549 5552 5555 5558 5560 5563 5566 5569 5572 5574 5577 5581 5584 5586 5589 5590 5591 5593 5594 5595 5598 5602 5604 5605 5605 5606 5607 5607 5608 5610 5611 5612 5612 5611 5611 5612 5612 5612 5612 5613 5615 5616 5617 5618 5619 5619 5620 5621 5622 5622 5623 5624 5624 5625 5625 5625 5626 5627
5542 5540 5539 5538 5536 5536 5536 5537 5537 5537 5536 5535 5534 5533 5533 5532 5531 5530 5529 5530 5531 5532 5535 5536 5538 5541 5544 5545 5547 5549 5551 5554 5556 5559 5561 5564 5567 5569 5572 5575 5578 5581 5583 5584 5585 5585 5587 5590 5594 5596 5596 5597 5597 5599 5599 5600 5600 5601 5601 5601 5602 5603 5604 5604 5604 5606 5607 5609 5610 5610 5611 5611 5611 5612 5613 5614 5614 5615 5616 5616 5616 5616 5617 5617 5618
5541 5539 5537 5536 5535 5534 5534 5534 5534 5534 5534 5534 5533 5532 5532 5531 5530 5529 5528 5528 5529 5530 5532 5534 5536 5538 5540 5541 5542 5543 5544 5546 5549 5552 5554 5557 5560 5562 5565 5568 5571 5573 5575 5576 5577 5578 5579 5581 5584 5587 5588 5588 5589 5590 5591 5592 5592 5592 5592 5592 5593 5595 5596 5596 5597 5598 5599 5601 5602 5603 5603 5603 5603 5604 5604 5605 5606 5606 5607 5607 5608 5608 5608 5608 5608
5539 5538 5536 5535 5534 5533 5532 5531 5531 5531 5532 5532 5531 5531 5530 5530 5529 5529 5528 5527 5528 5529 5530 5532 5533 5534 5535 5537 5538 5538 5539 5540 5542 5544 5546 5549 5552 5555 5558 5560 5563 5565 5568 5569 5570 5572 5572 5573 5575 5577 5579 5580 5580 5581 5582 5583 5584 5584 5584 5585 5586 5587 5588 5589 5589 5591 5592 5592 5593 5594 5595 5594 5595 5595 5595 5596 5596 5596 5597 5598 5599 5599 5600 5599 5599
5538 5537 5535 5533 5532 5531 5531 5530 5529 5529 5529 5529 5530 5529 5529 5528 5528 5527 5527 5526 5527 5527 5528 5529 5529 5530 5530 5531 5532 5533 5534 5535 5536 5537 5539 5542 5545 5548 5550 5553 5555 5558 5560 5562 5563 5564 5565 5566 5567 5568 5570 5572 5573 5573 5574 5574 5575 5576 5576 5577 5578 5579 5580 5581 5582 5583 5584 5584 5585 5585 5586 5585 5585 5585 5586 5586 5587 5587 5587 5588 5588 5589 5590 5589 5589
5538 5536 5534 5532 5531 5530 5529 5529 5528 5528 5527 5527 5527 5527 5527 5527 5526 5526 5526 5525 5525 5525 5525 5525 5526 5526 5526 5527 5527 5528 5529 5529 5530 5531 5533 5535 5538 5541 5544 5546 5548 5550 5553 5554 5556 5557 5558 5559 5559 5560 5561 5563 5565 5566 5567 5567 5568 5568 5569 5570 5570 5571 5572 5573 5574 5575 5576 5576 5576 5576 5576 5576 5576 5576 5576 5576 5576 5577 5577 5577 5577 5578 5579 5579 5579
5538 5536 5534 5532 5530 5529 5528 5528 5527 5527 5526 5526 5525 5525 5525 5525 5525 5524 5524 5524 5524 5523 5523 5523 5523 5523 5522 5522 5523 5523 5523 5524 5525 5527 5528 5530 5533 5536 5538 5540 5542 5543 5545 5547 5548 5550 5550 5551 5552 5553 5553 5554 5556 5557 5559 5560 5561 5561 5562 5563 5563 5564 5565 5565 5566 5566 5567 5567 5567 5567 5567 5567 5567 5567 5566 5566 5566 5566 5566 5566 5567 5567 5568 5568 5568
5537 5536 5534 5532 5530 5529 5527 5527 5526 5525 5525 5525 5524 5524 5523 5523 5523 5523 5523 5522 5522 5522 5521 5521 5521 5520 5520 5520 5519 5519 5520 5521 5522 5523 5524 5526 5528 5531 5533 5534 5535 5537 5538 5539 5540 5542 5543 5543 5544 5545 5546 5547 5548 5548 5550 5551 5552 5553 5554 5555 5556 5556 5556 5557 5557 5557 5557 5557 5557 5557 5557 5557 5557 5556 5556 5555 5555 5555 5556 5556 5556 5556 5556 5557 5557
5536 5535 5534 5532 5530 5529 5527 5526 5525 5524 5524 5523 5523 5523 5522 5522 5521 5521 5521 5520 5520 5520 5520 5519 5519 5519 5518 5518 5518 5517 5518 5518 5519 5520 5521 5522 5523 5525 5526 5527 5529 5530 5531 5532 5533 5534 5535 5536 5537 5538 5538 5539 5540 5540 5541 5542 5543 5544 5544 5545 5546 5546 5547 5547 5547 5546 5546 5546 5546 5546 5546 5545 5545 5545 5545 5544 5544 5544 5544 5544 5544 5544 5544 5545 5545
5536 5535 5533 5532 5531 5529 5527 5526 5524 5523 5523 5522 5522 5522 5521 5521 5521 5520 5520 5519 5519 5518 5518 5517 5517 5517 5517 5517 5517 5516 5516 5516 5516 5517 5517 5518 5519 5520 5520 5521 5522 5523 5523 5524 5525 5526 5527 5528 5529 5530 5531 5531 5532 5532 5533 5533 5534 5534 5535 5535 5536 5536 5536 5536 5536 5536 5536 5535 5535 5535 5534 5534 5534 5534 5533 5533 5532 5532 5532 5532 5533 5533 5533 5533 5533
5536 5534 5533 5532 5530 5529 5527 5526 5524 5523 5522 5521 5521 5520 5520 5520 5519 5519 5519 5519 5518 5518 5517 5516 5516 5515 5515 5515 5515 5515 5514 5514 5514 5514 5514 5514 5515 5515 5515 5516 5516 5517 5517 5518 5518 5519 5520 5521 5522 5522 5523 5524 5524 5524 5525 5525 5525 5525 5526 5526 5526 5526 5526 5526 5526 5525 5525 5525 5524 5524 5523 5523 5523 5523 5522 5522 5522 5521 5521 5521 5521 5522 5522 5522 5522
5535 5534 5533 5531 5530 5529 5528 5526 5525 5523 5522 5521 5520 5520 5519 5519 5518 5518 5518 5517 5517 5517 5517 5516 5515 5515 5514 5513 5513 5513 5512 5512 5512 5512 5512 5512 5512 5512 5512 5512 5512 5512 5512 5513 5513 5513 5514 5514 5515 5515 5516 5516 5516 5516 5517 5516 5517 5517 5517 5517 5517 5517 5516 5516 5516 5515 5515 5514 5514 5513 5513 5512 5512 5512 5511 5511 5511 5511 5510 5510 5511 5511 5511 5511 5511
5534 5533 5532 5531 5530 5529 5527 5526 5525 5524 5522 5521 5520 5519 5518 5518 5517 5517 5516 5516 5516 5515 5515 5515 5514 5514 5513 5513 5512 5512 5511 5511 5511 5510 5510 5510 5509 5509 5509 5508 5508 5508 5507 5507 5507 5507 5507 5508 5508 5508 5508 5508 5508 5508 5508 5508 5508 5508 5508 5508 5507 5507 5507 5507 5506 5505 5505 5504 5503 5503 5502 5502 5502 5502 5501 5501 5501 5501 5501 5501 5501 5501 5501 5501 5501
5533 5532 5531 5530 5529 5528 5527 5526 5525 5524 5523 5521 5520 5519 5518 5517 5517 5516 5516 5515 5514 5514 5513 5512 5512 5512 5511 5511 5511 5510 5510 5510 5509 5509 5509 5508 5508 5507 5507 5506 5505 5504 5504 5503 5503 5502 5502 5502 5502 5501 5501 5501 5501 5500 5500 5499 5499 5499 5498 5498 5498 5497 5497 5497 5496 5496 5495 5494 5493 5493 5492 5492 5492 5492 5492 5492 5492 5492 5492 5492 5492 5492 5492 5492 5492
5531 5530 5530 5529 5528 5527 5526 5525 5524 5523 5522 5521 5520 5519 5519 5518 5517 5516 5515 5515 5514 5513 5512 5512 5511 5510 5510 5509 5509 5508 5508 5507 5507 5507 5506 5506 5505 5505 5504 5503 5502 5502 5501 5500 5500 5499 5498 5498 5497 5497 5496 5495 5495 5494 5493 5493 5492 5491 5491 5490 5490 5489 5489 5488 5488 5487 5487 5486 5485 5484 5484 5484 5484 5484 5484 5483 5483 5483 5483 5483 5483 5483 5483 5483 5483
5529 5529 5528 5527 5526 5526 5525 5524 5523 5522 5521 5521 5520 5519 5518 5517 5516 5515 5515 5514 5513 5512 5512 5511 5510 5509 5509 5508 5508 5507 5506 5505 5505 5504 5503 5503 5502 5501 5501 5500 5499 5498 5497 5496 5495 5495 5494 5493 5492 5491 5491 5490 5489 5489 5488 5487 5487 5486 5485 5485 5484 5483 5483 5482 5482 5481 5480 5479 5478 5478 5477 5477 5477 5476 5476 5476 5475 5475 5474 5474 5474 5474 5474 5474 5474
5527 5527 5526 5525 5524 5524 5523 5522 5522 5521 5520 5519 5518 5518 5517 5516 5515 5514 5513 5513 5512 5511 5510 5509 5509 5508 5507 5506 5506 5505 5504 5503 5502 5501 5500 5499 5498 5497 5496 5496 5495 5494 5493 5492 5491 5490 5489 5488 5487 5486 5485 5484 5483 5483 5482 5481 5481 5480 5479 5478 5478 5477 5477 5476 5475 5475 5474 5473 5473 5472 5471 5471 5470 5470 5469 5469 5469 5469 5468 5468 5467 5467 5467 5467 5467
5525 5525 5524 5523 5522 5522 5521 5520 5519 5519 5518 5518 5517 5516 5515 5514 5513 5513 5512 5511 5510 5509 5508 5507 5506 5505 5505 5504 5503 5502 5501 5500 5499 5498 5497 5496 5495 5494 5492 5491 5490 5489 5488 5487 5486 5485 5484 5483 5482 5481 5480 5479 5477 5476 5476 5475 5474 5473 5472 5471 5470 5470 5469 5469 5468 5468 5467 5467 5466 5466 5465 5464 5464 5463 5463 5463 5463 5463 5463 5462 5462 5461 5461 5461 5461
5523 5522 5522 5521 5520 5520 5519 5518 5517 5517 5516 5515 5515 5514 5513 5512 5512 5511 5510 5509 5508 5507 5506 5505 5504 5503 5502 5501 5500 5499 5498 5497 5495 5494 5493 5492 5491 5490 5489 5488 5486 5485 5484 5483 5482 5480 5479 5478 5477 5475 5474 5473 5472 5470 5469 5468 5467 5465 5464 5463 5462 5461 5461 5460 5460 5459 5459 5459 5458 5458 5458 5458 5457 5457 5457 5457 5457 5457 5457 5457 5457 5456 5456 5456 5456